Location: Ahstedt
(52.2048°N, 10.1060°E)
Time: 18:33:59
(UTC+00:00)

MOS 1 Rocket - Visible Passes

Search period start: 11 April 2026 00:00
Search period end: 21 April 2026 00:00
Orbit: 610 x 812 km, 97.4° (Epoch: 11 April)

Date Brightness Start Highest point End Pass type
(mag) Time Alt. Az. Time Alt. Az. Time Alt. Az.
12 Apr 6.5 03:49:34 10° NE 03:52:49 16° E 03:55:59 10° ESE visible
14 Apr 6.6 03:42:46 10° NE 03:45:32 14° E 03:48:14 10° ESE visible
16 Apr 6.8 03:36:05 10° ENE 03:38:14 12° E 03:40:19 10° ESE visible
18 Apr 7.0 03:29:47 10° ENE 03:30:55 11° E 03:32:01 10° E visible
